{"data":{"norad_id":69594,"epoch":"2026-09-20T04:02:27.541248Z","epoch_age_seconds":57765,"freshness":"FRESH","line1":"1 69594U 26140C   26263.16837432  .00000671  00000+0  12598-3 0  9990","line2":"2 69594  51.9015 310.4904 0001926 340.4685  19.6202 14.76499259 15692","mean_motion":14.76499259,"eccentricity":0.0001926,"inclination_deg":51.9015,"raan_deg":310.4904,"arg_perigee_deg":340.4685,"mean_anomaly_deg":19.6202,"bstar":0.00012598,"rev_number":1569,"period_min":97.527986636125,"perigee_km":639.04433058711,"apogee_km":641.74786953726,"semimajor_km":7018.5331000622,"source":"CELESTRAK","updated_at":"2026-09-20T09:00:24.998715Z"}}